| time (UTC) | temp C | wind direction | speed KPH | gust KPH | rain 1hr cm | rain 24hr cm | rain mn cm | humidity % | barometer mb |
| 20260502190503 | 2 | 156 | 9.7 | 20.9 | 0.00 | 0.00 | 0.00 | 67 | 1015.6 |
| 20260502190002 | 2 | 161 | 9.7 | 22.5 | 0.00 | 0.00 | 0.00 | 68 | 1015.6 |
| 20260502185503 | 2 | 162 | 14.5 | 24.1 | 0.00 | 0.00 | 0.00 | 66 | 1015.5 |
| 20260502185003 | 2 | 165 | 11.3 | 22.5 | 0.00 | 0.00 | 0.00 | 67 | 1015.5 |
| 20260502184503 | 2 | 161 | 9.7 | 20.9 | 0.00 | 0.00 | 0.00 | 68 | 1015.3 |
| 20260502184003 | 2 | 169 | 9.7 | 16.1 | 0.00 | 0.00 | 0.00 | 68 | 1015.3 |
| 20260502183502 | 2 | 160 | 8.0 | 16.1 | 0.00 | 0.00 | 0.00 | 68 | 1015.2 |
| 20260502183002 | 2 | 170 | 9.7 | 17.7 | 0.00 | 0.00 | 0.00 | 68 | 1015.1 |
| 20260502182503 | 2 | 169 | 11.3 | 20.9 | 0.00 | 0.00 | 0.00 | 68 | 1015.2 |
| 20260502182003 | 2 | 169 | 12.9 | 25.7 | 0.00 | 0.00 | 0.00 | 69 | 1015.0 |
| 20260502181502 | 2 | 184 | 8.0 | 20.9 | 0.00 | 0.00 | 0.00 | 69 | 1015.0 |
| 20260502181002 | 2 | 165 | 14.5 | 24.1 | 0.00 | 0.00 | 0.00 | 69 | 1014.9 |
| 20260502170502 | 1 | 190 | 3.2 | 17.7 | 0.00 | 0.00 | 0.00 | 73 | 1013.8 |
| 20260502163502 | 0 | 184 | 4.8 | 9.7 | 0.00 | 0.00 | 0.00 | 79 | 1013.4 |
| 20260502163002 | 0 | 225 | 1.6 | 4.8 | 0.00 | 0.00 | 0.00 | 81 | 1013.5 |
| 20260502162502 | 0 | 355 | 1.6 | 8.0 | 0.00 | 0.00 | 0.00 | 81 | 1013.3 |
| 20260502162002 | 0 | 349 | 1.6 | 1.6 | 0.00 | 0.00 | 0.00 | 81 | 1013.2 |
| 20260502161003 | 0 | 349 | 1.6 | 3.2 | 0.00 | 0.00 | 0.00 | 80 | 1012.9 |
| 20260502160502 | 0 | 347 | 1.6 | 6.4 | 0.00 | 0.00 | 0.00 | 80 | 1012.8 |
| 20260502152003 | 1 | 141 | 1.6 | 1.6 | 0.00 | 0.00 | 0.00 | 74 | 1012.4 |
| 20260502151502 | 1 | 142 | 1.6 | 4.8 | 0.00 | 0.00 | 0.00 | 74 | 1012.3 |
| 20260502151003 | 1 | 147 | 1.6 | 6.4 | 0.00 | 0.00 | 0.00 | 74 | 1012.2 |
| 20260502130502 | 0 | 148 | 4.8 | 20.9 | 0.00 | 0.00 | 0.00 | 72 | 1010.6 |
| 20260502123503 | 0 | 167 | 3.2 | 11.3 | 0.00 | 0.00 | 0.00 | 73 | 1010.4 |
| 20260502123002 | 0 | 154 | 3.2 | 9.7 | 0.00 | 0.00 | 0.00 | 73 | 1010.4 |
| 20260502122502 | 0 | 154 | 6.4 | 14.5 | 0.00 | 0.00 | 0.00 | 73 | 1010.4 |
| 20260502121502 | 0 | 139 | 4.8 | 14.5 | 0.00 | 0.00 | 0.00 | 74 | 1010.2 |
| 20260502121002 | 0 | 144 | 4.8 | 14.5 | 0.00 | 0.00 | 0.00 | 74 | 1010.2 |
| 20260502120503 | 0 | 145 | 4.8 | 9.7 | 0.00 | 0.00 | 0.00 | 74 | 1010.3 |
| 20260502115502 | 0 | 162 | 6.4 | 12.9 | 0.00 | 0.00 | 0.00 | 75 | 1010.4 |
| 20260502115002 | 0 | 179 | 4.8 | 17.7 | 0.00 | 0.00 | 0.00 | 75 | 1010.3 |
| 20260502114502 | 0 | 148 | 6.4 | 16.1 | 0.00 | 0.00 | 0.00 | 75 | 1010.3 |
| 20260502114002 | 0 | 147 | 4.8 | 17.7 | 0.00 | 0.00 | 0.00 | 75 | 1010.2 |
| 20260502113502 | 0 | 148 | 6.4 | 16.1 | 0.00 | 0.00 | 0.00 | 75 | 1010.2 |
| 20260502113002 | 0 | 152 | 6.4 | 12.9 | 0.00 | 0.00 | 0.00 | 75 | 1010.2 |
| 20260502111502 | 0 | 138 | 6.4 | 17.7 | 0.00 | 0.00 | 0.00 | 75 | 1010.1 |
| 20260502111003 | 0 | 170 | 6.4 | 19.3 | 0.00 | 0.00 | 0.00 | 75 | 1010.0 |
| 20260502110503 | 0 | 152 | 8.0 | 16.1 | 0.00 | 0.00 | 0.00 | 74 | 1010.0 |
| 20260502110004 | 0 | 171 | 4.8 | 17.7 | 0.00 | 0.00 | 0.00 | 74 | 1009.8 |
| 20260502105502 | 0 | 172 | 8.0 | 20.9 | 0.00 | 0.00 | 0.00 | 75 | 1009.7 |
| 20260502105003 | 0 | 165 | 11.3 | 19.3 | 0.00 | 0.00 | 0.00 | 75 | 1009.6 |
| 20260502104503 | 0 | 155 | 8.0 | 19.3 | 0.00 | 0.00 | 0.00 | 75 | 1009.4 |
| 20260502103502 | 0 | 172 | 4.8 | 16.1 | 0.00 | 0.00 | 0.00 | 75 | 1009.3 |
| 20260502103002 | 0 | 179 | 9.7 | 22.5 | 0.00 | 0.00 | 0.00 | 75 | 1009.2 |
| 20260502102503 | 0 | 191 | 11.3 | 22.5 | 0.00 | 0.00 | 0.00 | 75 | 1009.1 |
| 20260502101503 | 0 | 175 | 9.7 | 17.7 | 0.00 | 0.00 | 0.00 | 75 | 1008.9 |
| 20260502101003 | 0 | 151 | 3.2 | 16.1 | 0.00 | 0.00 | 0.00 | 75 | 1008.8 |
| 20260502100502 | 0 | 167 | 8.0 | 17.7 | 0.00 | 0.00 | 0.00 | 76 | 1008.7 |
| 20260502091002 | -1 | 170 | 11.3 | 30.6 | 0.00 | 0.00 | 0.00 | 78 | 1008.0 |
| 20260502090502 | -1 | 191 | 8.0 | 25.7 | 0.00 | 0.00 | 0.00 | 78 | 1007.9 |
| 20260502071503 | 0 | 197 | 6.4 | 19.3 | 0.00 | 0.00 | 0.00 | 79 | 1006.0 |
| 20260502071002 | 0 | 188 | 8.0 | 19.3 | 0.00 | 0.00 | 0.00 | 78 | 1005.9 |
| 20260502070503 | 0 | 185 | 6.4 | 22.5 | 0.00 | 0.00 | 0.00 | 77 | 1005.9 |
| 20260502070002 | 0 | 186 | 6.4 | 16.1 | 0.00 | 0.00 | 0.00 | 78 | 1005.8 |
| 20260502065503 | 0 | 181 | 11.3 | 35.4 | 0.00 | 0.00 | 0.00 | 78 | 1005.7 |
| 20260502064503 | -1 | 181 | 9.7 | 22.5 | 0.00 | 0.00 | 0.00 | 78 | 1005.4 |
| 20260502064003 | -1 | 168 | 6.4 | 16.1 | 0.00 | 0.00 | 0.00 | 79 | 1005.2 |
| 20260502063502 | -1 | 175 | 6.4 | 19.3 | 0.00 | 0.00 | 0.00 | 79 | 1005.1 |
| 20260502063002 | -1 | 162 | 8.0 | 16.1 | 0.00 | 0.00 | 0.00 | 80 | 1005.0 |
| 20260502062003 | -1 | 157 | 8.0 | 20.9 | 0.00 | 0.00 | 0.00 | 80 | 1004.8 |
| 20260502061503 | -1 | 146 | 3.2 | 16.1 | 0.00 | 0.00 | 0.00 | 81 | 1004.8 |
| 20260502061003 | -1 | 164 | 4.8 | 14.5 | 0.00 | 0.00 | 0.00 | 81 | 1004.7 |
| 20260502060503 | -1 | 153 | 6.4 | 19.3 | 0.00 | 0.00 | 0.00 | 82 | 1004.6 |
| 20260502060002 | -1 | 154 | 4.8 | 14.5 | 0.00 | 0.00 | 0.00 | 82 | 1004.4 |
| 20260502055503 | -1 | 160 | 6.4 | 22.5 | 0.00 | 0.00 | 0.00 | 82 | 1004.4 |
| 20260502054502 | -1 | 163 | 12.9 | 22.5 | 0.00 | 0.00 | 0.00 | 82 | 1004.1 |
| 20260502054003 | -1 | 169 | 9.7 | 24.1 | 0.00 | 0.00 | 0.00 | 82 | 1004.1 |
| 20260502053503 | -1 | 164 | 11.3 | 20.9 | 0.00 | 0.00 | 0.00 | 81 | 1004.0 |
| 20260502053002 | -1 | 174 | 9.7 | 17.7 | 0.00 | 0.00 | 0.00 | 81 | 1003.9 |
| 20260502052502 | 0 | 170 | 8.0 | 22.5 | 0.00 | 0.00 | 0.00 | 80 | 1003.8 |
| 20260502052003 | 0 | 180 | 9.7 | 24.1 | 0.00 | 0.00 | 0.00 | 79 | 1003.8 |
| 20260502051502 | 0 | 166 | 8.0 | 17.7 | 0.00 | 0.00 | 0.00 | 78 | 1003.8 |
| 20260502051003 | 0 | 162 | 9.7 | 19.3 | 0.00 | 0.00 | 0.00 | 77 | 1003.6 |
| 20260502050503 | 0 | 166 | 9.7 | 17.7 | 0.00 | 0.00 | 0.00 | 76 | 1003.6 |
| 20260502050002 | 0 | 175 | 11.3 | 20.9 | 0.00 | 0.00 | 0.00 | 75 | 1003.5 |
| 20260502045503 | 0 | 166 | 14.5 | 35.4 | 0.00 | 0.00 | 0.00 | 73 | 1003.4 |
| 20260502045002 | 0 | 182 | 8.0 | 20.9 | 0.00 | 0.00 | 0.00 | 72 | 1003.4 |
| 20260502044503 | 0 | 178 | 8.0 | 22.5 | 0.00 | 0.00 | 0.00 | 70 | 1003.4 |
| 20260502044002 | 0 | 187 | 9.7 | 30.6 | 0.00 | 0.00 | 0.00 | 70 | 1003.2 |
| 20260502043503 | 0 | 157 | 9.7 | 25.7 | 0.00 | 0.00 | 0.00 | 67 | 1003.1 |
| 20260502043003 | 1 | 157 | 20.9 | 38.6 | 0.00 | 0.00 | 0.00 | 66 | 1003.1 |
| 20260502042503 | 1 | 153 | 30.6 | 70.8 | 0.00 | 0.00 | 0.00 | 65 | 1003.0 |
| 20260502042002 | 1 | 174 | 16.1 | 30.6 | 0.00 | 0.00 | 0.00 | 65 | 1002.9 |
| 20260502041502 | 1 | 173 | 8.0 | 19.3 | 0.00 | 0.00 | 0.00 | 65 | 1002.9 |
| 20260502041002 | 1 | 142 | 17.7 | 38.6 | 0.00 | 0.00 | 0.00 | 64 | 1002.7 |
| 20260502040502 | 1 | 155 | 16.1 | 30.6 | 0.00 | 0.00 | 0.00 | 62 | 1002.5 |
| 20260502040003 | 1 | 161 | 9.7 | 16.1 | 0.00 | 0.00 | 0.00 | 63 | 1002.4 |
| 20260502035502 | 1 | 163 | 17.7 | 38.6 | 0.00 | 0.00 | 0.00 | 64 | 1002.6 |
| 20260502035003 | 1 | 145 | 30.6 | 56.3 | 0.00 | 0.00 | 0.00 | 64 | 1002.3 |
| 20260502034503 | 1 | 175 | 11.3 | 24.1 | 0.00 | 0.00 | 0.00 | 63 | 1002.4 |
| 20260502033502 | 1 | 172 | 22.5 | 46.7 | 0.00 | 0.00 | 0.00 | 61 | 1002.2 |
| 20260502033002 | 1 | 156 | 25.7 | 43.5 | 0.00 | 0.00 | 0.00 | 61 | 1002.1 |
| 20260502032002 | 1 | 161 | 38.6 | 56.3 | 0.00 | 0.00 | 0.00 | 59 | 1001.8 |
| 20260502031503 | 1 | 166 | 29.0 | 48.3 | 0.00 | 0.00 | 0.00 | 60 | 1001.6 |
| 20260502031002 | 1 | 156 | 25.7 | 38.6 | 0.00 | 0.00 | 0.00 | 61 | 1001.6 |
| 20260502030503 | 1 | 169 | 37.0 | 80.5 | 0.00 | 0.00 | 0.00 | 61 | 1001.6 |
| 20260502030003 | 1 | 162 | 37.0 | 111.0 | 0.00 | 0.00 | 0.00 | 59 | 1001.7 |
| 20260502025503 | 1 | 165 | 19.3 | 35.4 | 0.00 | 0.00 | 0.00 | 59 | 1001.7 |
| 20260502025004 | 1 | 161 | 33.8 | 67.6 | 0.00 | 0.00 | 0.00 | 59 | 1002.1 |
| 20260502024502 | 1 | 146 | 35.4 | 57.9 | 0.00 | 0.00 | 0.00 | 58 | 1002.1 |
| 20260502024002 | 2 | 148 | 27.4 | 70.8 | 0.00 | 0.00 | 0.00 | 58 | 1002.2 |
| 20260502023503 | 2 | 171 | 12.9 | 38.6 | 0.00 | 0.00 | 0.00 | 59 | 1002.1 |
| 20260502023003 | 2 | 161 | 19.3 | 48.3 | 0.00 | 0.00 | 0.00 | 58 | 1002.3 |
| 20260502022503 | 2 | 153 | 37.0 | 66.0 | 0.00 | 0.00 | 0.00 | 58 | 1002.3 |
| 20260502022003 | 2 | 171 | 20.9 | 48.3 | 0.00 | 0.00 | 0.00 | 57 | 1002.2 |
| 20260502021002 | 2 | 159 | 11.3 | 35.4 | 0.00 | 0.00 | 0.00 | 57 | 1002.0 |
| 20260502020002 | 2 | 166 | 12.9 | 38.6 | 0.00 | 0.00 | 0.00 | 57 | 1002.1 |
| 20260502015503 | 2 | 139 | 9.7 | 22.5 | 0.00 | 0.00 | 0.00 | 56 | 1001.8 |
| 20260502015003 | 2 | 146 | 19.3 | 37.0 | 0.00 | 0.00 | 0.00 | 57 | 1002.0 |
| 20260502014502 | 2 | 137 | 33.8 | 54.7 | 0.00 | 0.00 | 0.00 | 55 | 1002.2 |
| 20260502014002 | 2 | 123 | 30.6 | 77.2 | 0.00 | 0.00 | 0.00 | 55 | 1002.0 |
| 20260502013503 | 2 | 142 | 16.1 | 43.5 | 0.00 | 0.00 | 0.00 | 53 | 1002.5 |
| 20260502013002 | 2 | 169 | 4.8 | 17.7 | 0.00 | 0.00 | 0.00 | 53 | 1002.3 |
| 20260502012503 | 2 | 92 | 9.7 | 19.3 | 0.00 | 0.00 | 0.00 | 54 | 1002.6 |
| 20260502012003 | 2 | 92 | 6.4 | 17.7 | 0.00 | 0.00 | 0.00 | 53 | 1002.2 |
| 20260502011502 | 2 | 4 | 3.2 | 14.5 | 0.00 | 0.00 | 0.00 | 55 | 1001.9 |
| 20260502011003 | 2 | 101 | 8.0 | 20.9 | 0.00 | 0.00 | 0.00 | 54 | 1001.8 |
| 20260502010502 | 2 | 109 | 8.0 | 20.9 | 0.00 | 0.00 | 0.00 | 54 | 1002.3 |
| 20260502010002 | 2 | 328 | 9.7 | 24.1 | 0.00 | 0.00 | 0.00 | 54 | 1002.0 |
| 20260502005503 | 2 | 159 | 1.6 | 20.9 | 0.00 | 0.00 | 0.00 | 53 | 1002.2 |
| 20260502005002 | 2 | 120 | 14.5 | 37.0 | 0.00 | 0.00 | 0.00 | 52 | 1001.5 |
| 20260502004503 | 3 | 66 | 9.7 | 22.5 | 0.00 | 0.00 | 0.00 | 54 | 1002.0 |
| 20260502004003 | 3 | 76 | 12.9 | 30.6 | 0.00 | 0.00 | 0.00 | 54 | 1001.9 |
| 20260502003503 | 3 | 93 | 19.3 | 38.6 | 0.00 | 0.00 | 0.00 | 52 | 1002.2 |
| 20260502003003 | 3 | 179 | 14.5 | 48.3 | 0.00 | 0.00 | 0.00 | 52 | 1001.7 |
| 20260502002503 | 3 | 130 | 12.9 | 25.7 | 0.00 | 0.00 | 0.00 | 53 | 1001.9 |
| 20260502002003 | 2 | 172 | 9.7 | 35.4 | 0.00 | 0.00 | 0.00 | 53 | 1002.1 |
| 20260502001502 | 2 | 131 | 8.0 | 25.7 | 0.00 | 0.00 | 0.00 | 53 | 1002.4 |
| 20260502000502 | 2 | 141 | 12.9 | 37.0 | 0.00 | 0.00 | 0.00 | 53 | 1002.3 |
| 20260502000002 | 2 | 150 | 22.5 | 46.7 | 0.00 | 0.00 | 0.00 | 52 | 1001.9 |
| 20260501235502 | 2 | 152 | 30.6 | 54.7 | 0.00 | 0.00 | 0.00 | 54 | 1002.6 |
| 20260501235002 | 2 | 141 | 32.2 | 54.7 | 0.00 | 0.00 | 0.00 | 54 | 1002.5 |
| 20260501234502 | 2 | 152 | 32.2 | 66.0 | 0.00 | 0.00 | 0.00 | 54 | 1002.4 |
| 20260501234002 | 2 | 138 | 37.0 | 57.9 | 0.00 | 0.00 | 0.00 | 53 | 1002.6 |
| 20260501233503 | 2 | 143 | 37.0 | 104.6 | 0.00 | 0.00 | 0.00 | 54 | 1002.7 |
| 20260501233003 | 2 | 157 | 41.8 | 77.2 | 0.00 | 0.00 | 0.00 | 54 | 1002.5 |
| 20260501232503 | 2 | 161 | 38.6 | 67.6 | 0.00 | 0.00 | 0.00 | 54 | 1002.6 |
| 20260501232002 | 2 | 160 | 40.2 | 90.1 | 0.00 | 0.00 | 0.00 | 53 | 1002.4 |
| 20260501231503 | 2 | 153 | 43.5 | 91.7 | 0.00 | 0.00 | 0.00 | 53 | 1002.7 |
| 20260501231003 | 2 | 149 | 37.0 | 83.7 | 0.00 | 0.00 | 0.00 | 53 | 1002.4 |
| 20260501230502 | 2 | 144 | 35.4 | 56.3 | 0.00 | 0.00 | 0.00 | 54 | 1002.6 |
| 20260501230002 | 2 | 148 | 40.2 | 91.7 | 0.00 | 0.00 | 0.00 | 53 | 1002.7 |
| 20260501225503 | 2 | 164 | 41.8 | 88.5 | 0.00 | 0.00 | 0.00 | 53 | 1002.7 |
| 20260501225003 | 2 | 151 | 46.7 | 90.1 | 0.00 | 0.00 | 0.00 | 54 | 1002.9 |
| 20260501224503 | 2 | 156 | 46.7 | 86.9 | 0.00 | 0.00 | 0.00 | 53 | 1002.8 |
| 20260501224003 | 2 | 160 | 45.1 | 90.1 | 0.00 | 0.00 | 0.00 | 54 | 1002.8 |
| 20260501223002 | 2 | 156 | 45.1 | 88.5 | 0.00 | 0.00 | 0.00 | 53 | 1002.7 |
| 20260501222503 | 3 | 163 | 53.1 | 106.2 | 0.00 | 0.00 | 0.00 | 53 | 1002.6 |
| 20260501222002 | 3 | 163 | 43.5 | 85.3 | 0.00 | 0.00 | 0.00 | 53 | 1002.7 |
| 20260501221502 | 3 | 158 | 43.5 | 95.0 | 0.00 | 0.00 | 0.00 | 53 | 1002.6 |
| 20260501221002 | 3 | 155 | 41.8 | 86.9 | 0.00 | 0.00 | 0.00 | 53 | 1002.7 |
| 20260501220503 | 3 | 130 | 37.0 | 70.8 | 0.00 | 0.00 | 0.00 | 54 | 1002.7 |
| 20260501215503 | 3 | 158 | 41.8 | 67.6 | 0.00 | 0.00 | 0.00 | 53 | 1003.2 |
| 20260501215003 | 3 | 165 | 45.1 | 80.5 | 0.00 | 0.00 | 0.00 | 53 | 1003.5 |
| 20260501214502 | 3 | 149 | 45.1 | 99.8 | 0.00 | 0.00 | 0.00 | 53 | 1003.7 |
| 20260501214002 | 2 | 148 | 37.0 | 83.7 | 0.00 | 0.00 | 0.00 | 54 | 1003.7 |
| 20260501213502 | 2 | 163 | 43.5 | 70.8 | 0.00 | 0.00 | 0.00 | 52 | 1003.9 |
| 20260501213002 | 2 | 160 | 45.1 | 86.9 | 0.00 | 0.00 | 0.00 | 53 | 1004.3 |
| 20260501212502 | 2 | 155 | 45.1 | 90.1 | 0.00 | 0.00 | 0.00 | 52 | 1004.2 |
| 20260501212003 | 2 | 157 | 41.8 | 77.2 | 0.00 | 0.00 | 0.00 | 52 | 1004.4 |
| 20260501210503 | 3 | 164 | 37.0 | 66.0 | 0.00 | 0.00 | 0.00 | 51 | 1004.1 |
| 20260501210002 | 3 | 144 | 16.1 | 37.0 | 0.00 | 0.00 | 0.00 | 52 | 1004.3 |
| 20260501205503 | 3 | 154 | 37.0 | 54.7 | 0.00 | 0.00 | 0.00 | 52 | 1004.1 |
| 20260501205003 | 3 | 147 | 22.5 | 46.7 | 0.00 | 0.00 | 0.00 | 53 | 1004.4 |
| 20260501204502 | 3 | 158 | 43.5 | 66.0 | 0.00 | 0.00 | 0.00 | 52 | 1004.4 |
| 20260501204003 | 3 | 154 | 41.8 | 86.9 | 0.00 | 0.00 | 0.00 | 53 | 1004.5 |
| 20260501203503 | 3 | 149 | 35.4 | 56.3 | 0.00 | 0.00 | 0.00 | 53 | 1004.5 |
| 20260501203003 | 3 | 160 | 25.7 | 48.3 | 0.00 | 0.00 | 0.00 | 53 | 1004.7 |
| 20260501202503 | 3 | 156 | 40.2 | 67.6 | 0.00 | 0.00 | 0.00 | 52 | 1004.5 |
| 20260501201502 | 2 | 139 | 37.0 | 67.6 | 0.00 | 0.00 | 0.00 | 53 | 1004.2 |
| 20260501201002 | 2 | 160 | 38.6 | 77.2 | 0.00 | 0.00 | 0.00 | 53 | 1004.4 |
| 20260501200502 | 2 | 155 | 38.6 | 86.9 | 0.00 | 0.00 | 0.00 | 53 | 1004.7 |
| 20260501200002 | 2 | 155 | 41.8 | 101.4 | 0.00 | 0.00 | 0.00 | 52 | 1004.5 |
| 20260501195503 | 2 | 149 | 37.0 | 66.0 | 0.00 | 0.00 | 0.00 | 53 | 1004.4 |
| 20260501195002 | 2 | 151 | 40.2 | 80.5 | 0.00 | 0.00 | 0.00 | 54 | 1004.6 |
| 20260501194503 | 2 | 159 | 37.0 | 70.8 | 0.00 | 0.00 | 0.00 | 54 | 1004.7 |
| 20260501194003 | 2 | 163 | 38.6 | 66.0 | 0.00 | 0.00 | 0.00 | 54 | 1004.4 |
| 20260501193503 | 2 | 165 | 38.6 | 57.9 | 0.00 | 0.00 | 0.00 | 54 | 1004.9 |
| 20260501193002 | 2 | 155 | 27.4 | 48.3 | 0.00 | 0.00 | 0.00 | 54 | 1004.9 |
| 20260501192503 | 2 | 148 | 37.0 | 83.7 | 0.00 | 0.00 | 0.00 | 53 | 1005.1 |
| 20260501192002 | 2 | 165 | 33.8 | 66.0 | 0.00 | 0.00 | 0.00 | 54 | 1004.9 |
| 20260501191502 | 2 | 160 | 24.1 | 43.5 | 0.00 | 0.00 | 0.00 | 52 | 1005.1 |
| 20260501191002 | 2 | 153 | 32.2 | 54.7 | 0.00 | 0.00 | 0.00 | 53 | 1005.1 |